Location: Brunembert
(50.7122°N, 1.8935°E)
Time: 03:02:49
(UTC+00:00)

Cosmos 1500 Rocket - Pass Details

Date: 04 August 2021
Orbit: 602 x 632 km, 82.5° (Epoch: 18 September)

Event Time Altitude Azimuth Distance (km) Brightness Sun altitude
Exits shadow 23:00:58 - 242° (WSW) 2,226 6.3 -21.1°
Reaches altitude 10° 23:01:44 10° 248° (WSW) 2,001 6.1 -21.2°
Maximum altitude 23:04:57 19° 295° (WNW) 1,487 5.9 -21.3°
Drops below altitude 10° 23:08:13 10° 342° (NNW) 2,022 7.4 -21.4°
Sets 23:11:02 0° 0° (N) 2,938 8.4 -21.5°
